Вернуться в каталог

STARLINK-31922

АктивенСвязьVLEO
NORAD 59846·PAYLOAD·🇺🇸 United States

Запущен May 23, 2024 с Cape Canaveral Space Force Station

Loading…

Ближайшие Пролёты (ближайшие 24 часа)

TLE

СвежийSource: CelesTrak SupGP

Эпоха: Sep 15, 2026, 02:13 UTC

1 59846C 24097M   26258.09284722  .00014702  00000+0  53247-3 0  2586
2 59846  43.0026 284.4046 0001606 268.3736 215.4004 15.27573055    12

Отслеживайте STARLINK-31922 в реальном времени с AllMySat

Download on the App Store